Find Kosmos-1869

NORAD ID: 18214 Int'l Des: 1987-062 Owner: GMS/YUZH Country: SU operational
LEOCIRCULARPOLAR

当前视图

正在加载3D地球...

关于 Kosmos-1869

正在加载描述...

即将过境

Passes for default location (London). Set your location on the main map for personalized predictions.

高度历史

Loading altitude history...

两行轨道根数

1 18214U 87062A 26150.98924523 .00012478 00000-0 34172-3 0 9997
2 18214 82.5090 118.1116 0019270 121.4309 238.8823 15.36990369101928
Epoch: May 30, 2026 • Age: 9 hours

当前状态

高度 490.6 km
速度 7.61 km/s
星下点 -58.00°S, 83.85°E
发射日期 Jul 16, 1987
运行时间 38.8 years
类型 other

技术详情

分类 Payload
质量 1936.00 kg
干质量 1936.00 kg
总质量 1936.00 kg
长度 5.00 m
直径 2.40 m
跨度 21.50 m
形状 Cyl + 2 Pan + Ant
制造商 YUZH
平台类型 Okean
阶段状态 In Orbit
所有者/国家 GMS/YUZH/SU

Most Searched